GW3608 Weather Reports


Display with metric or nautical units.
time (UTC)temp
F
wind
direction
speed
MPH
gust
MPH
rain 1hr
in
rain 24hr
in
rain mn
in
humidity
%
barometer
mb
20260508011528 45 37 1.0 4.0 0.00 0.00 0.00 62 1010.1
20260508010009 46 5 0.0 0.0 0.00 0.00 0.00 60 1010.0
20260508004516 46 360 0.0 2.0 0.00 0.00 0.00 59 1009.9
20260508003020 46 40 0.0 1.0 0.00 0.00 0.00 59 1009.7
20260508001526 47 32 0.0 2.0 0.00 0.00 0.00 58 1009.7
20260508000028 47 9 0.0 5.0 0.00 0.00 0.00 56 1009.5
20260507234525 47 352 0.0 2.0 0.00 0.00 0.00 56 1009.4
20260507233030 48 78 0.0 4.0 0.00 0.00 0.00 55 1009.3
20260507231526 49 26 0.0 4.0 0.00 0.00 0.00 54 1009.2
20260507230023 49 11 0.0 5.0 0.00 0.00 0.00 54 1009.3
20260507224525 50 9 0.0 5.0 0.00 0.00 0.00 53 1009.2
20260507223029 50 305 1.0 5.0 0.00 0.00 0.00 53 1009.2
20260507221521 50 298 0.0 3.0 0.00 0.00 0.00 52 1009.2
20260507220023 51 350 1.0 6.0 0.00 0.00 0.00 52 1009.2
20260507214525 51 352 0.0 8.0 0.00 0.00 0.00 52 1009.3
20260507213034 51 282 1.0 8.0 0.00 0.00 0.00 51 1009.4
20260507211526 52 318 1.0 7.0 0.00 0.00 0.00 49 1009.3
20260507210025 51 26 0.0 5.0 0.00 0.00 0.00 52 1009.3
20260507204524 53 5 2.0 7.0 0.00 0.00 0.00 48 1009.3
20260507203030 52 30 2.0 8.0 0.00 0.00 0.00 48 1009.3
20260507201529 54 317 4.0 11.0 0.00 0.01 0.00 45 1009.5
20260507200028 54 10 1.0 7.0 0.00 0.01 0.00 48 1009.4
20260507194509 53 277 1.0 8.0 0.00 0.02 0.00 52 1009.5
20260507193014 52 44 2.0 9.0 0.00 0.03 0.00 50 1009.7
20260507191517 52 297 1.0 8.0 0.00 0.04 0.00 47 1009.8
20260507190018 53 30 1.0 10.0 0.00 0.04 0.00 47 1009.9
20260507184503 53 69 2.0 8.0 0.00 0.04 0.00 49 1010.0
20260507183006 52 333 1.0 11.0 0.00 0.04 0.00 49 1010.1
20260507181511 55 344 2.0 9.0 0.00 0.04 0.00 45 1010.1
20260507180022 54 43 3.0 9.0 0.00 0.04 0.00 46 1010.4
20260507174520 54 38 1.0 8.0 0.00 0.04 0.00 47 1010.5
20260507173005 53 236 2.0 7.0 0.00 0.04 0.00 49 1010.8
20260507171507 52 13 3.0 10.0 0.00 0.05 0.00 47 1010.9
20260507170013 50 21 2.0 5.0 0.00 0.05 0.00 51 1011.0
20260507164518 52 59 1.0 7.0 0.00 0.06 0.00 49 1011.0
20260507163019 51 349 1.0 10.0 0.00 0.06 0.00 56 1011.1
20260507161504 49 360 0.0 9.0 0.00 0.06 0.00 55 1011.3
20260507160012 50 286 0.0 4.0 0.00 0.07 0.00 55 1011.2
20260507154518 51 282 1.0 7.0 0.00 0.07 0.00 59 1011.5
20260507153022 51 264 2.0 7.0 0.00 0.08 0.00 56 1011.5
20260507151521 49 51 1.0 10.0 0.00 0.09 0.00 53 1011.7
20260507150007 49 255 4.0 9.0 0.00 0.11 0.00 57 1012.0
20260507144514 47 281 1.0 7.0 0.00 0.12 0.00 60 1012.1
20260507143021 47 360 1.0 7.0 0.00 0.14 0.00 59 1012.1
20260507141522 46 265 0.0 5.0 0.00 0.15 0.00 63 1012.1
20260507140024 45 267 0.0 4.0 0.00 0.16 0.00 64 1012.2
20260507134515 44 294 1.0 5.0 0.00 0.18 0.00 67 1012.4
20260507133013 44 267 1.0 5.0 0.00 0.20 0.00 68 1012.4
20260507131527 43 336 1.0 7.0 0.00 0.23 0.00 70 1012.4
20260507130025 43 16 1.0 5.0 0.00 0.26 0.00 71 1012.4
20260507124526 42 5 1.0 5.0 0.00 0.31 0.00 72 1012.4
20260507123013 41 30 1.0 5.0 0.00 0.33 0.00 71 1012.6
20260507121516 41 314 0.0 5.0 0.00 0.35 0.00 76 1012.3
20260507120036 40 76 0.0 3.0 0.00 0.36 0.00 79 1012.3
20260507114526 39 299 0.0 4.0 0.00 0.37 0.00 81 1012.2
20260507113038 39 34 0.0 3.0 0.00 0.37 0.00 83 1012.1
20260507111513 38 304 0.0 5.0 0.00 0.38 0.00 84 1012.0
20260507110017 37 336 0.0 4.0 0.00 0.38 0.00 87 1012.0
20260507104521 37 56 1.0 4.0 0.00 0.38 0.00 89 1012.0
20260507103023 36 5 0.0 3.0 0.00 0.39 0.00 90 1011.7
20260507101526 36 11 0.0 3.0 0.00 0.40 0.00 90 1011.7
20260507100023 36 14 0.0 2.0 0.00 0.40 0.00 90 1011.7
20260507094519 36 23 0.0 2.0 0.00 0.40 0.00 90 1011.6
20260507093024 36 352 0.0 1.0 0.00 0.40 0.00 89 1011.7
20260507091527 37 42 0.0 2.0 0.00 0.40 0.00 88 1011.7
20260507090026 37 30 0.0 1.0 0.00 0.41 0.00 87 1011.8
20260507084516 37 5 0.0 3.0 0.00 0.41 0.00 87 1011.8
20260507083023 38 333 0.0 3.0 0.00 0.42 0.00 86 1011.7
20260507081531 39 348 0.0 2.0 0.00 0.42 0.00 86 1011.8
20260507080025 39 27 1.0 5.0 0.00 0.42 0.00 86 1011.8
20260507074532 39 360 0.0 3.0 0.00 0.42 0.00 87 1011.7
20260507073018 40 43 0.0 5.0 0.00 0.42 0.00 87 1011.7
20260507071528 40 69 0.0 4.0 0.00 0.42 0.00 89 1011.8
20260507070026 41 25 0.0 4.0 0.00 0.42 0.00 90 1011.7
20260507064536 41 5 2.0 8.0 0.00 0.42 0.00 91 1011.6
20260507063030 41 344 2.0 5.0 0.00 0.42 0.00 92 1011.4
20260507061529 42 93 0.0 9.0 0.00 0.42 0.00 93 1011.3
20260507060022 42 352 0.0 8.0 0.00 0.42 0.00 94 1011.3
20260507054524 42 302 0.0 8.0 0.00 0.42 0.00 94 1011.1
20260507053033 43 89 2.0 7.0 0.00 0.42 0.00 94 1011.0
20260507051528 43 352 1.0 8.0 0.00 0.42 0.00 94 1011.3
20260507050032 43 286 0.0 2.0 0.00 0.42 0.00 95 1011.3
20260507044509 43 194 0.0 1.0 0.00 0.42 0.00 94 1011.3
20260507043009 43 228 0.0 0.0 0.00 0.42 0.00 94 1011.3
20260507041508 43 223 0.0 1.0 0.00 0.42 0.00 94 1011.0
20260507040013 43 352 0.0 1.0 0.00 0.42 0.00 94 1011.1
20260507034511 42 352 0.0 0.0 0.00 0.42 0.42 94 1010.9
20260507033010 42 352 0.0 1.0 0.00 0.42 0.42 94 1010.8
20260507031510 42 256 0.0 1.0 0.00 0.42 0.42 94 1011.2
20260507030014 42 256 0.0 1.0 0.00 0.42 0.42 94 1011.2
20260507024512 42 261 0.0 1.0 0.00 0.42 0.42 94 1011.4
20260507023012 43 261 0.0 1.0 0.00 0.42 0.42 94 1011.1
20260507021514 43 261 0.0 0.0 0.00 0.42 0.42 94 1011.7
20260507020012 43 261 0.0 0.0 0.00 0.42 0.42 94 1011.3
20260507014520 43 261 0.0 0.0 0.00 0.42 0.42 93 1011.5
20260507013015 43 261 0.0 0.0 0.00 0.42 0.42 93 1011.4